Terminal Aerodrome Forecast
Issued by NWS

Home | Current Version | Previous Version | Text Only | Print | Product List | Glossary On
Versions: 1 2 3 4 5 6 7 8 9 10 11 12 13 14 15 16 17 18 19 20 21 22 23 24 25 26 27 28 29 30 31 32 33 34 35
267
FTUS41 KBOX 221128
TAFFMH
TAF
KFMH 221128Z 2212/2312 22007KT 3SM BR BKN003
     FM221300 22008KT 4SM BR SCT008
     FM221500 21013G22KT P6SM SCT050
     FM222200 22015G24KT P6SM BKN020
     FM230000 22015G23KT P6SM BKN015
     FM230300 22016G28KT 5SM BR BKN010
     FM230800 21015G25KT 4SM BR VCSH OVC010=

USA.gov is the U.S. government's official web portal to all federal, state and local government web resources and services.